,,Stat6,,Stat2,,Stat8,,Stat9,,Stat10,,Wind1,,Wind1,
time,status,PA1M_AVG,status,PR1M_SUM,status,RH1M_AVG,status,SR1M_AVG,status,TA1M_AVG,status,W1dAve1m,status,W1sAve1m,
2009-03-16, 00:00:00,VALID,918.196,VALID,0,VALID,100,VALID,-0.0169808,VALID,18.4532,VALID,133,VALID,0,
2009-03-16, 00:01:00,VALID,918.197,VALID,0,VALID,100,VALID,-0.0169808,VALID,18.4691,VALID,133,VALID,0,
2009-03-16, 00:02:00,VALID,918.197,VALID,0,VALID,100,VALID,-0.0339617,VALID,18.4756,VALID,133,VALID,0,
2009-03-16, 00:03:00,VALID,918.189,VALID,0,VALID,100,VALID,0.0169808,VALID,18.55,VALID,133,VALID,0,
2009-03-16, 00:04:00,VALID,918.177,VALID,0,VALID,100,VALID,0,VALID,18.5632,VALID,133,VALID,0,
2009-03-16, 00:05:00,VALID,918.156,VALID,0,VALID,100,VALID,0,VALID,18.5692,VALID,134,VALID,0,
2009-03-16, 00:06:00,VALID,918.136,VALID,0,VALID,100,VALID,0.0169808,VALID,18.5725,VALID,152,VALID,0.00228659,
2009-03-16, 00:07:00,VALID,918.115,VALID,0,VALID,100,VALID,-0.0169808,VALID,18.6183,VALID,155,VALID,0.00600962,
2009-03-16, 00:08:00,VALID,918.11,VALID,0,VALID,100,VALID,-0.0679233,VALID,18.6577,VALID,144,VALID,0,
2009-03-16, 00:09:00,VALID,918.098,VALID,0,VALID,100,VALID,-0.0849042,VALID,18.6874,VALID,133,VALID,0.159624,
2009-03-16, 00:10:00,VALID,918.094,VALID,0,VALID,100,VALID,-0.101885,VALID,18.7268,VALID,130,VALID,0.0179332,
2009-03-16, 00:11:00,VALID,918.082,VALID,0,VALID,100,VALID,-0.101885,VALID,18.7458,VALID,106,VALID,0.0774148,
2009-03-16, 00:12:00,VALID,918.087,VALID,0,VALID,100,VALID,-0.101885,VALID,18.772,VALID,113,VALID,0.100497,
2009-03-16, 00:13:00,VALID,918.097,VALID,0,VALID,100,VALID,-0.0849042,VALID,18.7782,VALID,115,VALID,0.0012429,
2009-03-16, 00:14:00,VALID,918.106,VALID,0,VALID,100,VALID,-0.101885,VALID,18.7912,VALID,119,VALID,0,
2009-03-16, 00:15:00,VALID,918.093,VALID,0,VALID,100,VALID,-0.0849042,VALID,18.7977,VALID,103,VALID,0,
2009-03-16, 00:16:00,VALID,918.093,VALID,0,VALID,100,VALID,-0.0849042,VALID,18.8014,VALID,96,VALID,0,
2009-03-16, 00:17:00,VALID,918.077,VALID,0,VALID,100,VALID,-0.118866,VALID,18.8111,VALID,110,VALID,0,
2009-03-16, 00:18:00,VALID,918.061,VALID,0,VALID,100,VALID,-0.135847,VALID,18.7974,VALID,82,VALID,0,
2009-03-16, 00:19:00,VALID,918.037,VALID,0,VALID,100,VALID,-0.0849042,VALID,18.8076,VALID,68,VALID,0,
2009-03-16, 00:20:00,VALID,918.021,VALID,0,VALID,100,VALID,-0.0849042,VALID,18.7847,VALID,67,VALID,0,
2009-03-16, 00:21:00,VALID,918.003,VALID,0,VALID,100,VALID,-0.101885,VALID,18.7754,VALID,71,VALID,0,
2009-03-16, 00:22:00,VALID,917.977,VALID,0,VALID,100,VALID,-0.118866,VALID,18.7458,VALID,78,VALID,0,
2009-03-16, 00:23:00,VALID,917.968,VALID,0,VALID,100,VALID,-0.101885,VALID,18.7263,VALID,84,VALID,0,
2009-03-16, 00:24:00,VALID,917.945,VALID,0,VALID,100,VALID,-0.101885,VALID,18.7103,VALID,87,VALID,0,
2009-03-16, 00:25:00,VALID,917.907,VALID,0,VALID,100,VALID,-0.101885,VALID,18.7038,VALID,97,VALID,0,
2009-03-16, 00:26:00,VALID,917.89,VALID,0,VALID,100,VALID,-0.0849042,VALID,18.7203,VALID,108,VALID,0,
2009-03-16, 00:27:00,VALID,917.861,VALID,0,VALID,100,VALID,-0.0849042,VALID,18.7171,VALID,112,VALID,0,
2009-03-16, 00:28:00,VALID,917.817,VALID,0,VALID,100,VALID,-0.0849042,VALID,18.7136,VALID,112,VALID,0,
2009-03-16, 00:29:00,VALID,917.784,VALID,0,VALID,100,VALID,-0.101885,VALID,18.7066,VALID,113,VALID,0,
2009-03-16, 00:30:00,VALID,917.751,VALID,0,VALID,100,VALID,-0.101885,VALID,18.7069,VALID,113,VALID,0,
2009-03-16, 00:31:00,VALID,917.72,VALID,0,VALID,100,VALID,-0.101885,VALID,18.7004,VALID,112,VALID,0,
2009-03-16, 00:32:00,VALID,917.694,VALID,0,VALID,100,VALID,-0.118866,VALID,18.7171,VALID,110,VALID,0,
2009-03-16, 00:33:00,VALID,917.693,VALID,0,VALID,100,VALID,-0.118866,VALID,18.7136,VALID,107,VALID,0,
2009-03-16, 00:34:00,VALID,917.691,VALID,0,VALID,100,VALID,-0.0849042,VALID,18.7001,VALID,122,VALID,0,
2009-03-16, 00:35:00,VALID,917.681,VALID,0,VALID,100,VALID,-0.0679233,VALID,18.7034,VALID,122,VALID,0,
2009-03-16, 00:36:00,VALID,917.658,VALID,0,VALID,100,VALID,-0.101885,VALID,18.6999,VALID,122,VALID,0,
2009-03-16, 00:37:00,VALID,917.64,VALID,0,VALID,100,VALID,-0.0849042,VALID,18.6807,VALID,122,VALID,0,
2009-03-16, 00:38:00,VALID,917.62,VALID,0,VALID,100,VALID,-0.0849042,VALID,18.6876,VALID,124,VALID,0,
2009-03-16, 00:39:00,VALID,917.613,VALID,0,VALID,100,VALID,-0.101885,VALID,18.6911,VALID,132,VALID,0,
2009-03-16, 00:40:00,VALID,917.59,VALID,0,VALID,100,VALID,-0.101885,VALID,18.6784,VALID,136,VALID,0,
2009-03-16, 00:41:00,VALID,917.573,VALID,0,VALID,100,VALID,-0.101885,VALID,18.6614,VALID,136,VALID,0,
2009-03-16, 00:42:00,VALID,917.546,VALID,0,VALID,100,VALID,-0.101885,VALID,18.6422,VALID,150,VALID,0,
2009-03-16, 00:43:00,VALID,917.517,VALID,0,VALID,100,VALID,-0.0679233,VALID,18.6587,VALID,146,VALID,0.00223214,
2009-03-16, 00:44:00,VALID,917.497,VALID,0,VALID,100,VALID,-0.101885,VALID,18.6422,VALID,139,VALID,0.078125,
2009-03-16, 00:45:00,VALID,917.467,VALID,0,VALID,100,VALID,-0.118866,VALID,18.6357,VALID,143,VALID,0.0741235,
2009-03-16, 00:46:00,VALID,917.437,VALID,0,VALID,100,VALID,-0.101885,VALID,18.6195,VALID,145,VALID,0.00914634,
2009-03-16, 00:47:00,VALID,917.424,VALID,0,VALID,100,VALID,-0.101885,VALID,18.5936,VALID,142,VALID,0.0368304,
2009-03-16, 00:48:00,VALID,917.389,VALID,0,VALID,100,VALID,-0.101885,VALID,18.5771,VALID,147,VALID,0,
2009-03-16, 00:49:00,VALID,917.382,VALID,0,VALID,100,VALID,-0.0679233,VALID,18.5803,VALID,161,VALID,0,
2009-03-16, 00:50:00,VALID,917.358,VALID,0,VALID,100,VALID,-0.118866,VALID,18.6197,VALID,143,VALID,0.0342548,
2009-03-16, 00:51:00,VALID,917.323,VALID,0,VALID,100,VALID,-0.101885,VALID,18.6424,VALID,150,VALID,0,
2009-03-16, 00:52:00,VALID,917.303,VALID,0,VALID,100,VALID,-0.101885,VALID,18.6327,VALID,129,VALID,0,
2009-03-16, 00:53:00,VALID,917.289,VALID,0,VALID,100,VALID,-0.0849042,VALID,18.6061,VALID,120,VALID,0,
2009-03-16, 00:54:00,VALID,917.271,VALID,0,VALID,100,VALID,-0.0679233,VALID,18.6005,VALID,112,VALID,0,
2009-03-16, 00:55:00,VALID,917.279,VALID,0,VALID,100,VALID,-0.0679233,VALID,18.5873,VALID,127,VALID,0,
2009-03-16, 00:56:00,VALID,917.275,VALID,0,VALID,100,VALID,-0.0849042,VALID,18.5709,VALID,127,VALID,0,
2009-03-16, 00:57:00,VALID,917.277,VALID,0,VALID,100,VALID,-0.101885,VALID,18.5743,VALID,127,VALID,0,
2009-03-16, 00:58:00,VALID,917.266,VALID,0,VALID,100,VALID,-0.0509425,VALID,18.5678,VALID,127,VALID,0,
2009-03-16, 00:59:00,VALID,917.268,VALID,0,VALID,100,VALID,-0.0849042,VALID,18.5551,VALID,123,VALID,0,
2009-03-16, 01:00:00,VALID,917.255,VALID,0,VALID,100,VALID,-0.0679233,VALID,18.5259,VALID,111,VALID,0,
2009-03-16, 01:01:00,VALID,917.243,VALID,0,VALID,100,VALID,-0.0849042,VALID,18.49,VALID,105,VALID,0,
2009-03-16, 01:02:00,VALID,917.243,VALID,0,VALID,100,VALID,-0.0679233,VALID,18.4872,VALID,100,VALID,0,
2009-03-16, 01:03:00,VALID,917.257,VALID,0,VALID,100,VALID,-0.101885,VALID,18.5,VALID,98,VALID,0,
2009-03-16, 01:04:00,VALID,917.249,VALID,0,VALID,100,VALID,-0.101885,VALID,18.4868,VALID,101,VALID,0,
2009-03-16, 01:05:00,VALID,917.259,VALID,0,VALID,100,VALID,-0.0679233,VALID,18.477,VALID,106,VALID,0,
2009-03-16, 01:06:00,VALID,917.255,VALID,0,VALID,100,VALID,-0.0679233,VALID,18.4214,VALID,75,VALID,0,
2009-03-16, 01:07:00,VALID,917.257,VALID,0,VALID,100,VALID,-0.0679233,VALID,18.3538,VALID,75,VALID,0,
2009-03-16, 01:08:00,VALID,917.278,VALID,0,VALID,100,VALID,-0.0679233,VALID,18.3306,VALID,72,VALID,0,
2009-03-16, 01:09:00,VALID,917.29,VALID,0,VALID,100,VALID,-0.0509425,VALID,18.3016,VALID,56,VALID,0,
2009-03-16, 01:10:00,VALID,917.3,VALID,0,VALID,100,VALID,-0.0509425,VALID,18.3176,VALID,24,VALID,0,
2009-03-16, 01:11:00,VALID,917.326,VALID,0,VALID,100,VALID,-0.0169808,VALID,18.3665,VALID,18,VALID,0,
2009-03-16, 01:12:00,VALID,917.314,VALID,0,VALID,100,VALID,-0.0339617,VALID,18.3797,VALID,18,VALID,0,
2009-03-16, 01:13:00,VALID,917.307,VALID,0,VALID,100,VALID,-0.0509425,VALID,18.3667,VALID,15,VALID,0,
2009-03-16, 01:14:00,VALID,917.288,VALID,0,VALID,100,VALID,-0.0509425,VALID,18.3598,VALID,14,VALID,0,
2009-03-16, 01:15:00,VALID,917.279,VALID,0,VALID,100,VALID,-0.0339617,VALID,18.3603,VALID,14,VALID,0,
2009-03-16, 01:16:00,VALID,917.266,VALID,0,VALID,100,VALID,-0.0509425,VALID,18.3505,VALID,14,VALID,0,
2009-03-16, 01:17:00,VALID,917.265,VALID,0,VALID,100,VALID,-0.0169808,VALID,18.3341,VALID,14,VALID,0,
2009-03-16, 01:18:00,VALID,917.245,VALID,0,VALID,100,VALID,-0.0169808,VALID,18.3341,VALID,14,VALID,0,
2009-03-16, 01:19:00,VALID,917.247,VALID,0,VALID,100,VALID,-0.0169808,VALID,18.3144,VALID,15,VALID,0,
2009-03-16, 01:20:00,VALID,917.245,VALID,0,VALID,100,VALID,-0.0679233,VALID,18.2949,VALID,21,VALID,0,
2009-03-16, 01:21:00,VALID,917.242,VALID,0,VALID,100,VALID,-0.0339617,VALID,18.272,VALID,35,VALID,0,
2009-03-16, 01:22:00,VALID,917.224,VALID,0,VALID,100,VALID,-0.0849042,VALID,18.259,VALID,52,VALID,0,
2009-03-16, 01:23:00,VALID,917.233,VALID,0,VALID,100,VALID,0.0169808,VALID,18.2454,VALID,72,VALID,0,
2009-03-16, 01:24:00,VALID,917.225,VALID,0,VALID,100,VALID,0.0509425,VALID,18.2644,VALID,81,VALID,0,
2009-03-16, 01:25:00,VALID,917.223,VALID,0,VALID,100,VALID,0.0509425,VALID,18.2843,VALID,81,VALID,0,
2009-03-16, 01:26:00,VALID,917.215,VALID,0,VALID,100,VALID,0.0509425,VALID,18.1997,VALID,81,VALID,0,
2009-03-16, 01:27:00,VALID,917.207,VALID,0,VALID,100,VALID,0.0849042,VALID,18.1478,VALID,81,VALID,0,
2009-03-16, 01:28:00,VALID,917.207,VALID,0,VALID,100,VALID,0.0679233,VALID,18.1835,VALID,81,VALID,0,
2009-03-16, 01:29:00,VALID,917.214,VALID,0,VALID,100,VALID,0.0169808,VALID,18.1511,VALID,81,VALID,0,
2009-03-16, 01:30:00,VALID,917.211,VALID,0,VALID,100,VALID,0.0679233,VALID,18.1478,VALID,81,VALID,0,
2009-03-16, 01:31:00,VALID,917.214,VALID,0,VALID,100,VALID,0,VALID,18.0601,VALID,81,VALID,0,
2009-03-16, 01:32:00,VALID,917.211,VALID,0,VALID,100,VALID,0.0679233,VALID,17.9852,VALID,81,VALID,0,
2009-03-16, 01:33:00,VALID,917.191,VALID,0,VALID,100,VALID,0.0849042,VALID,17.9658,VALID,75,VALID,0,
2009-03-16, 01:34:00,VALID,917.186,VALID,0,VALID,100,VALID,0.101885,VALID,17.9528,VALID,70,VALID,0,
2009-03-16, 01:35:00,VALID,917.173,VALID,0,VALID,100,VALID,0.0679233,VALID,17.9788,VALID,70,VALID,0,
2009-03-16, 01:36:01,VALID,917.162,VALID,0,VALID,100,VALID,0.0679233,VALID,18.0501,VALID,70,VALID,0,
2009-03-16, 01:37:00,VALID,917.155,VALID,0,VALID,100,VALID,0.0679233,VALID,18.1379,VALID,70,VALID,0,
2009-03-16, 01:38:00,VALID,917.143,VALID,0,VALID,100,VALID,0,VALID,18.181,VALID,70,VALID,0,
2009-03-16, 01:39:01,VALID,917.133,VALID,0,VALID,100,VALID,-0.0339617,VALID,18.1779,VALID,76,VALID,0,
2009-03-16, 01:40:00,VALID,917.118,VALID,0,VALID,100,VALID,0,VALID,18.2525,VALID,105,VALID,0,
2009-03-16, 01:41:00,VALID,917.106,VALID,0,VALID,100,VALID,-0.0509425,VALID,18.269,VALID,120,VALID,0,
2009-03-16, 01:42:00,VALID,917.1,VALID,0,VALID,100,VALID,-0.0509425,VALID,18.2467,VALID,127,VALID,0,
2009-03-16, 01:43:00,VALID,917.099,VALID,0,VALID,100,VALID,-0.0169808,VALID,18.2238,VALID,127,VALID,0,
2009-03-16, 01:44:00,VALID,917.099,VALID,0,VALID,100,VALID,-0.0169808,VALID,18.1886,VALID,128,VALID,0,
2009-03-16, 01:45:00,VALID,917.096,VALID,0,VALID,100,VALID,-0.0679233,VALID,18.1652,VALID,130,VALID,0,
2009-03-16, 01:46:01,VALID,917.072,VALID,0,VALID,100,VALID,-0.0679233,VALID,18.1589,VALID,130,VALID,0,
2009-03-16, 01:47:01,VALID,917.049,VALID,0,VALID,100,VALID,-0.0849042,VALID,18.1786,VALID,130,VALID,0,
2009-03-16, 01:48:01,VALID,917.034,VALID,0,VALID,100,VALID,-0.0509425,VALID,18.1525,VALID,130,VALID,0,
2009-03-16, 01:49:00,VALID,917.028,VALID,0,VALID,100,VALID,-0.0509425,VALID,18.0874,VALID,130,VALID,0,
2009-03-16, 01:50:00,VALID,917.017,VALID,0,VALID,100,VALID,-0.0679233,VALID,18.0813,VALID,130,VALID,0,
2009-03-16, 01:51:01,VALID,917.014,VALID,0,VALID,100,VALID,-0.0339617,VALID,18.0709,VALID,130,VALID,0,
2009-03-16, 01:52:00,VALID,917.016,VALID,0,VALID,100,VALID,-0.0509425,VALID,18.0774,VALID,130,VALID,0,
2009-03-16, 01:53:01,VALID,917.009,VALID,0,VALID,100,VALID,0.0169808,VALID,18.0804,VALID,130,VALID,0,
2009-03-16, 01:54:00,VALID,917.015,VALID,0,VALID,100,VALID,0.0169808,VALID,18.0867,VALID,130,VALID,0,
2009-03-16, 01:55:01,VALID,917.01,VALID,0,VALID,100,VALID,0,VALID,18.1024,VALID,130,VALID,0,
2009-03-16, 01:56:00,VALID,916.998,VALID,0,VALID,100,VALID,0,VALID,18.0932,VALID,130,VALID,0,
2009-03-16, 01:57:00,VALID,917.01,VALID,0,VALID,100,VALID,0.0339617,VALID,18.0705,VALID,130,VALID,0,
2009-03-16, 01:58:01,VALID,916.985,VALID,0,VALID,100,VALID,-0.0339617,VALID,18.0248,VALID,124,VALID,0,
2009-03-16, 01:59:00,VALID,916.97,VALID,0,VALID,100,VALID,0.0169808,VALID,18.057,VALID,121,VALID,0,
2009-03-16, 02:00:00,VALID,916.958,VALID,0,VALID,100,VALID,0.0169808,VALID,18.0508,VALID,121,VALID,0,
2009-03-16, 02:01:00,VALID,916.941,VALID,0,VALID,100,VALID,0.0339617,VALID,18.0211,VALID,121,VALID,0,
2009-03-16, 02:02:00,VALID,916.918,VALID,0,VALID,100,VALID,0.0169808,VALID,17.9987,VALID,121,VALID,0,
2009-03-16, 02:03:01,VALID,916.913,VALID,0,VALID,100,VALID,0.0339617,VALID,17.9667,VALID,121,VALID,0,
2009-03-16, 02:04:01,VALID,916.907,VALID,0,VALID,100,VALID,0.0169808,VALID,17.9181,VALID,121,VALID,0,
2009-03-16, 02:05:00,VALID,916.883,VALID,0,VALID,100,VALID,0.0169808,VALID,17.8889,VALID,56,VALID,0,
2009-03-16, 02:06:00,VALID,916.871,VALID,0,VALID,100,VALID,0,VALID,17.9273,VALID,9,VALID,0,
2009-03-16, 02:07:00,VALID,916.854,VALID,0,VALID,100,VALID,0,VALID,18.0668,VALID,316,VALID,0,
2009-03-16, 02:08:00,VALID,916.844,VALID,0,VALID,100,VALID,-0.0509425,VALID,18.1974,VALID,315,VALID,0,
2009-03-16, 02:09:01,VALID,916.83,VALID,0,VALID,100,VALID,-0.0679233,VALID,18.2857,VALID,315,VALID,0,
2009-03-16, 02:10:00,VALID,916.825,VALID,0,VALID,100,VALID,-0.0169808,VALID,18.3179,VALID,315,VALID,0,
2009-03-16, 02:11:00,VALID,916.82,VALID,0,VALID,100,VALID,-0.0339617,VALID,18.3086,VALID,315,VALID,0,
2009-03-16, 02:12:00,VALID,916.822,VALID,0,VALID,100,VALID,-0.0849042,VALID,18.2817,VALID,315,VALID,0,
2009-03-16, 02:13:00,VALID,916.814,VALID,0,VALID,100,VALID,-0.101885,VALID,18.2335,VALID,315,VALID,0,
2009-03-16, 02:14:00,VALID,916.811,VALID,0,VALID,100,VALID,-0.0849042,VALID,18.1527,VALID,315,VALID,0,
2009-03-16, 02:15:01,VALID,916.822,VALID,0,VALID,100,VALID,-0.0849042,VALID,18.1142,VALID,315,VALID,0,
2009-03-16, 02:16:00,VALID,916.846,VALID,0,VALID,100,VALID,-0.0679233,VALID,18.0227,VALID,315,VALID,0,
2009-03-16, 02:17:00,VALID,916.831,VALID,0,VALID,100,VALID,-0.0849042,VALID,17.9936,VALID,315,VALID,0,
2009-03-16, 02:18:00,VALID,916.832,VALID,0,VALID,100,VALID,-0.101885,VALID,17.9127,VALID,315,VALID,0,
2009-03-16, 02:19:01,VALID,916.829,VALID,0,VALID,100,VALID,-0.101885,VALID,17.8541,VALID,315,VALID,0,
2009-03-16, 02:20:00,VALID,916.812,VALID,0,VALID,100,VALID,-0.0849042,VALID,17.8416,VALID,315,VALID,0,
2009-03-16, 02:21:00,VALID,916.801,VALID,0,VALID,100,VALID,-0.0849042,VALID,17.8346,VALID,315,VALID,0,
2009-03-16, 02:22:00,VALID,916.79,VALID,0,VALID,100,VALID,-0.0509425,VALID,17.8541,VALID,315,VALID,0,
2009-03-16, 02:23:01,VALID,916.785,VALID,0,VALID,100,VALID,-0.0339617,VALID,17.8742,VALID,315,VALID,0,
2009-03-16, 02:24:00,VALID,916.761,VALID,0,VALID,100,VALID,-0.101885,VALID,17.8606,VALID,227,VALID,0,
2009-03-16, 02:25:00,VALID,916.731,VALID,0,VALID,100,VALID,-0.0849042,VALID,17.8478,VALID,199,VALID,0,
2009-03-16, 02:26:01,VALID,916.699,VALID,0,VALID,100,VALID,-0.0339617,VALID,17.8442,VALID,188,VALID,0,
2009-03-16, 02:27:01,VALID,916.678,VALID,0,VALID,100,VALID,-0.0849042,VALID,17.8701,VALID,155,VALID,0,
2009-03-16, 02:28:01,VALID,916.672,VALID,0,VALID,100,VALID,-0.0849042,VALID,17.9287,VALID,155,VALID,0,
2009-03-16, 02:29:01,VALID,916.656,VALID,0,VALID,100,VALID,-0.101885,VALID,17.9479,VALID,153,VALID,0,
2009-03-16, 02:30:01,VALID,916.649,VALID,0,VALID,100,VALID,-0.0849042,VALID,17.9813,VALID,153,VALID,0,
2009-03-16, 02:31:01,VALID,916.636,VALID,0,VALID,100,VALID,-0.0849042,VALID,17.9546,VALID,153,VALID,0,
2009-03-16, 02:32:01,VALID,916.63,VALID,0,VALID,100,VALID,-0.101885,VALID,17.9644,VALID,153,VALID,0,
2009-03-16, 02:33:01,VALID,916.627,VALID,0,VALID,100,VALID,-0.101885,VALID,18.0167,VALID,153,VALID,0,
2009-03-16, 02:34:01,VALID,916.625,VALID,0,VALID,100,VALID,-0.0849042,VALID,18.0197,VALID,153,VALID,0,
2009-03-16, 02:35:01,VALID,916.635,VALID,0,VALID,100,VALID,-0.0339617,VALID,18.029,VALID,153,VALID,0,
2009-03-16, 02:36:01,VALID,916.622,VALID,0,VALID,100,VALID,-0.118866,VALID,18.0422,VALID,153,VALID,0,
2009-03-16, 02:37:01,VALID,916.639,VALID,0,VALID,100,VALID,-0.0509425,VALID,18.0387,VALID,153,VALID,0,
2009-03-16, 02:38:01,VALID,916.635,VALID,0,VALID,100,VALID,-0.0169808,VALID,18.0545,VALID,152,VALID,0,
2009-03-16, 02:39:01,VALID,916.642,VALID,0,VALID,100,VALID,0.0339617,VALID,18.0244,VALID,141,VALID,0,
2009-03-16, 02:40:00,VALID,916.642,VALID,0,VALID,100,VALID,0.0169808,VALID,18.0211,VALID,139,VALID,0,
2009-03-16, 02:41:00,VALID,916.642,VALID,0,VALID,100,VALID,-0.0169808,VALID,17.9887,VALID,130,VALID,0,
2009-03-16, 02:42:00,VALID,916.65,VALID,0,VALID,100,VALID,0.0169808,VALID,17.9435,VALID,117,VALID,0,
2009-03-16, 02:43:00,VALID,916.662,VALID,0,VALID,100,VALID,0,VALID,17.8655,VALID,106,VALID,0,
2009-03-16, 02:44:00,VALID,916.653,VALID,0,VALID,100,VALID,-0.0339617,VALID,17.8138,VALID,106,VALID,0,
2009-03-16, 02:45:00,VALID,916.66,VALID,0,VALID,100,VALID,-0.0169808,VALID,17.8236,VALID,106,VALID,0,
2009-03-16, 02:46:00,VALID,916.654,VALID,0,VALID,100,VALID,0.0169808,VALID,17.8826,VALID,117,VALID,0,
2009-03-16, 02:47:00,VALID,916.646,VALID,0,VALID,100,VALID,0,VALID,17.856,VALID,117,VALID,0,
2009-03-16, 02:48:00,VALID,916.642,VALID,0,VALID,100,VALID,0,VALID,17.8465,VALID,119,VALID,0,
2009-03-16, 02:49:00,VALID,916.634,VALID,0,VALID,100,VALID,0.0169808,VALID,17.8134,VALID,131,VALID,0,
2009-03-16, 02:50:00,VALID,916.607,VALID,0,VALID,100,VALID,0,VALID,17.7942,VALID,131,VALID,0,
2009-03-16, 02:51:00,VALID,916.595,VALID,0,VALID,100,VALID,0,VALID,17.7589,VALID,132,VALID,0,
2009-03-16, 02:52:00,VALID,916.579,VALID,0,VALID,100,VALID,0,VALID,17.7066,VALID,120,VALID,0,
2009-03-16, 02:53:00,VALID,916.57,VALID,0,VALID,100,VALID,-0.0509425,VALID,17.682,VALID,118,VALID,0,
2009-03-16, 02:54:00,VALID,916.578,VALID,0,VALID,100,VALID,-0.101885,VALID,17.65,VALID,118,VALID,0,
2009-03-16, 02:55:00,VALID,916.574,VALID,0,VALID,100,VALID,-0.0679233,VALID,17.6396,VALID,112,VALID,0,
2009-03-16, 02:56:00,VALID,916.586,VALID,0,VALID,100,VALID,-0.0849042,VALID,17.6042,VALID,113,VALID,0,
2009-03-16, 02:57:00,VALID,916.596,VALID,0,VALID,100,VALID,-0.0849042,VALID,17.6396,VALID,119,VALID,0,
2009-03-16, 02:58:00,VALID,916.607,VALID,0,VALID,100,VALID,-0.0849042,VALID,17.6723,VALID,116,VALID,0,
2009-03-16, 02:59:00,VALID,916.616,VALID,0,VALID,100,VALID,-0.101885,VALID,17.698,VALID,123,VALID,0,
2009-03-16, 03:00:00,VALID,916.619,VALID,0,VALID,100,VALID,-0.0849042,VALID,17.7142,VALID,136,VALID,0,
2009-03-16, 03:01:00,VALID,916.628,VALID,0,VALID,100,VALID,-0.0679233,VALID,17.6952,VALID,143,VALID,0,
2009-03-16, 03:02:00,VALID,916.626,VALID,0,VALID,100,VALID,-0.0849042,VALID,17.711,VALID,151,VALID,0,
2009-03-16, 03:03:00,VALID,916.63,VALID,0,VALID,100,VALID,-0.0339617,VALID,17.7791,VALID,139,VALID,0,
2009-03-16, 03:04:00,VALID,916.645,VALID,0,VALID,100,VALID,-0.0509425,VALID,17.8273,VALID,143,VALID,0,
2009-03-16, 03:05:00,VALID,916.652,VALID,0,VALID,100,VALID,-0.0849042,VALID,17.8666,VALID,129,VALID,0,
2009-03-16, 03:06:00,VALID,916.646,VALID,0,VALID,100,VALID,-0.0679233,VALID,17.8796,VALID,156,VALID,0,
2009-03-16, 03:07:00,VALID,916.654,VALID,0,VALID,100,VALID,-0.0169808,VALID,17.8991,VALID,145,VALID,0,
2009-03-16, 03:08:00,VALID,916.653,VALID,0,VALID,100,VALID,-0.0679233,VALID,17.8861,VALID,144,VALID,0,
2009-03-16, 03:09:00,VALID,916.641,VALID,0,VALID,100,VALID,-0.0849042,VALID,17.8764,VALID,144,VALID,0,
2009-03-16, 03:10:00,VALID,916.644,VALID,0,VALID,100,VALID,-0.0509425,VALID,17.8923,VALID,144,VALID,0,
2009-03-16, 03:11:00,VALID,916.656,VALID,0,VALID,100,VALID,-0.0849042,VALID,17.909,VALID,143,VALID,0,
2009-03-16, 03:12:00,VALID,916.669,VALID,0,VALID,100,VALID,-0.0849042,VALID,17.8926,VALID,143,VALID,0,
2009-03-16, 03:13:00,VALID,916.666,VALID,0,VALID,100,VALID,-0.0849042,VALID,17.9218,VALID,133,VALID,0,
2009-03-16, 03:14:00,VALID,916.674,VALID,0,VALID,100,VALID,-0.0679233,VALID,17.9088,VALID,132,VALID,0,
2009-03-16, 03:15:00,VALID,916.668,VALID,0,VALID,100,VALID,-0.101885,VALID,17.89,VALID,132,VALID,0,
2009-03-16, 03:16:00,VALID,916.675,VALID,0,VALID,100,VALID,-0.0679233,VALID,17.861,VALID,108,VALID,0,
2009-03-16, 03:17:00,VALID,916.672,VALID,0,VALID,100,VALID,-0.0509425,VALID,17.815,VALID,99,VALID,0,
2009-03-16, 03:18:00,VALID,916.673,VALID,0,VALID,100,VALID,-0.0339617,VALID,17.7399,VALID,99,VALID,0,
2009-03-16, 03:19:00,VALID,916.679,VALID,0,VALID,100,VALID,-0.0679233,VALID,17.6269,VALID,99,VALID,0,
2009-03-16, 03:20:00,VALID,916.664,VALID,0,VALID,100,VALID,-0.0849042,VALID,17.5166,VALID,99,VALID,0,
2009-03-16, 03:21:00,VALID,916.669,VALID,0,VALID,100,VALID,-0.0679233,VALID,17.5035,VALID,99,VALID,0,
2009-03-16, 03:22:00,VALID,916.656,VALID,0,VALID,100,VALID,-0.0679233,VALID,17.575,VALID,99,VALID,0,
2009-03-16, 03:23:00,VALID,916.651,VALID,0,VALID,100,VALID,-0.0509425,VALID,17.5488,VALID,99,VALID,0,
2009-03-16, 03:24:00,VALID,916.63,VALID,0,VALID,100,VALID,-0.0849042,VALID,17.5616,VALID,99,VALID,0,
2009-03-16, 03:25:00,VALID,916.616,VALID,0,VALID,100,VALID,-0.0849042,VALID,17.5979,VALID,99,VALID,0,
2009-03-16, 03:26:00,VALID,916.616,VALID,0,VALID,100,VALID,-0.0679233,VALID,17.6466,VALID,88,VALID,0,
2009-03-16, 03:27:00,VALID,916.612,VALID,0,VALID,100,VALID,-0.0339617,VALID,17.6234,VALID,82,VALID,0,
2009-03-16, 03:28:00,VALID,916.589,VALID,0,VALID,100,VALID,-0.0679233,VALID,17.7856,VALID,75,VALID,0,
2009-03-16, 03:29:00,VALID,916.568,VALID,0,VALID,100,VALID,-0.0509425,VALID,17.928,VALID,70,VALID,0,
2009-03-16, 03:30:00,VALID,916.57,VALID,0,VALID,100,VALID,-0.0679233,VALID,17.9704,VALID,72,VALID,0,
2009-03-16, 03:31:00,VALID,916.563,VALID,0,VALID,100,VALID,-0.0509425,VALID,17.9998,VALID,77,VALID,0,
2009-03-16, 03:32:00,VALID,916.55,VALID,0,VALID,100,VALID,-0.0849042,VALID,18.0223,VALID,85,VALID,0,
2009-03-16, 03:33:00,VALID,916.547,VALID,0,VALID,100,VALID,-0.0509425,VALID,18.0061,VALID,97,VALID,0,
2009-03-16, 03:34:00,VALID,916.545,VALID,0,VALID,100,VALID,-0.0169808,VALID,17.9704,VALID,101,VALID,0,
2009-03-16, 03:35:00,VALID,916.536,VALID,0,VALID,100,VALID,-0.0509425,VALID,17.9864,VALID,103,VALID,0,
2009-03-16, 03:36:00,VALID,916.534,VALID,0,VALID,100,VALID,-0.0849042,VALID,17.9637,VALID,103,VALID,0,
2009-03-16, 03:37:00,VALID,916.51,VALID,0,VALID,100,VALID,-0.0679233,VALID,17.9449,VALID,123,VALID,0,
2009-03-16, 03:38:00,VALID,916.5,VALID,0,VALID,100,VALID,0.0169808,VALID,17.9371,VALID,131,VALID,0,
2009-03-16, 03:39:00,VALID,916.491,VALID,0,VALID,100,VALID,0.0509425,VALID,17.8713,VALID,134,VALID,0,
2009-03-16, 03:40:00,VALID,916.488,VALID,0,VALID,100,VALID,0.0679233,VALID,17.8518,VALID,151,VALID,0,
2009-03-16, 03:41:00,VALID,916.482,VALID,0,VALID,100,VALID,0.0339617,VALID,17.8069,VALID,162,VALID,0,
2009-03-16, 03:42:00,VALID,916.468,VALID,0,VALID,100,VALID,0.0679233,VALID,17.7775,VALID,173,VALID,0,
2009-03-16, 03:43:00,VALID,916.465,VALID,0,VALID,100,VALID,0,VALID,17.7291,VALID,169,VALID,0,
2009-03-16, 03:44:00,VALID,916.454,VALID,0,VALID,100,VALID,0.0339617,VALID,17.69,VALID,170,VALID,0,
2009-03-16, 03:45:00,VALID,916.429,VALID,0,VALID,100,VALID,0.0339617,VALID,17.661,VALID,168,VALID,0,
2009-03-16, 03:46:00,VALID,916.41,VALID,0,VALID,100,VALID,0,VALID,17.6515,VALID,160,VALID,0,
2009-03-16, 03:47:00,VALID,916.387,VALID,0,VALID,100,VALID,0.0169808,VALID,17.6383,VALID,160,VALID,0,
2009-03-16, 03:48:00,VALID,916.365,VALID,0,VALID,100,VALID,0.0509425,VALID,17.6318,VALID,160,VALID,0,
2009-03-16, 03:49:00,VALID,916.363,VALID,0,VALID,100,VALID,0.0169808,VALID,17.6186,VALID,160,VALID,0,
2009-03-16, 03:50:00,VALID,916.358,VALID,0,VALID,100,VALID,0.0679233,VALID,17.6121,VALID,160,VALID,0,